This demonstration page uses our WeatherBlox Daily Observations layout. Learn more.

Left ArrowRight Arrow

34.16533, -84.80231

Hourly Observations for August 7, 2020

Temp ( °F °C ) Dew Point ( °F °C ) Humidity (%) Winds ( mph kmh ) Pressure ( in mb ) Visibility ( mi km ) Precip ( " mm )
12:53 am 00:53 Mostly Clear 75 23.9 69 20.6 82 82 Calm 29.99 1016 10 16 0.00 0.00
1:53 am 01:53 Mostly Cloudy 74 23.3 69 20.6 85 85 Calm 30.00 1016 10 16 0.00 0.00
2:53 am 02:53 Mostly Cloudy 74 23.3 69 20.6 85 85 Calm 30.02 1017 10 16 0.00 0.00
3:53 am 03:53 Partly Cloudy 73 22.8 69 20.6 87 87 Calm 30.01 1016 10 16 0.00 0.00
4:53 am 04:53 Clear 72 22.2 69 20.6 91 91 Calm 30.01 1016 10 16 0.00 0.00
5:53 am 05:53 Clear 70 21.1 68 20 93 93 Calm 30.01 1016 8 13 0.00 0.00
6:53 am 06:53 Clear 72 22.2 69 20.6 91 91 Calm 30.03 1017 10 16 0.00 0.00
7:53 am 07:53 Sunny 73 22.8 70 21.1 90 90 Calm 30.04 1017 10 16 0.00 0.00
8:53 am 08:53 Sunny 77 25 71 21.7 82 82 ENE 3 6 30.06 1018 10 16 0.00 0.00
9:53 am 09:53 Sunny 80 26.7 71 21.7 74 74 ENE 5 7 30.06 1018 10 16 0.00 0.00
10:53 am 10:53 Mostly Sunny 83 28.3 72 22.2 70 70 Calm 30.06 1018 10 16 0.00 0.00
11:53 am 11:53 Mostly Sunny 86 30 72 22.2 63 63 ENE 6 9 30.06 1018 10 16 0.00 0.00
12:09 pm 12:09 Mostly Cloudy 88 31.1 72 22.2 59 59 NNE 7 11 30.05 1018 10 16 0.00 0.00
12:36 pm 12:36 Mostly Cloudy 89 31.7 72 22.2 57 57 VRB 7 11 30.05 1018 10 16 0.00 0.00
12:53 pm 12:53 Mostly Cloudy 88 31.1 71 21.7 57 57 VRB 5 7 30.06 1018 10 16 0.00 0.00
1:53 pm 13:53 Cloudy 89 31.7 70 21.1 53 53 VRB 5 7 30.05 1018 10 16 0.00 0.00
2:53 pm 14:53 Mostly Cloudy 92 33.3 69 20.6 47 47 N 6 9 30.04 1017 10 16 0.00 0.00
3:53 pm 15:53 Partly Cloudy 95 35 66 18.9 39 39 Calm 30.02 1017 10 16 0.00 0.00
4:53 pm 16:53 Mostly Cloudy 92 33.3 66 18.9 43 43 N 3 6 30.00 1016 10 16 0.00 0.00
5:53 pm 17:53 Mostly Cloudy 92 33.3 67 19.4 44 44 VRB 5 7 30.01 1016 10 16 0.00 0.00
6:53 pm 18:53 Mostly Cloudy 91 32.8 68 20 47 47 Calm 30.01 1016 10 16 0.00 0.00
7:13 pm 19:13 Mostly Cloudy with Thunderstorms 89 31.7 69 20.6 52 52 Calm 30.00 1016 10 16 0.00 0.00
7:29 pm 19:29 Cloudy 88 31.1 68 20 52 52 VRB 7 11 30.01 1016 10 16 0.00 0.00
7:38 pm 19:38 Cloudy with Thunderstorms 86 30 67 19.4 53 53 VRB 5 7 30.03 1017 10 16 0.00 0.00
7:53 pm 19:53 Cloudy with Thunderstorms 82 27.8 68 20 63 63 S 9 15 30.03 1017 10 16 0.00 0.00
8:23 pm 20:23 Mostly Cloudy with Nearby Thunderstorms 80 26.7 66 18.9 62 62 E 9 15 30.06 1018 10 16 0.00 0.00
8:30 pm 20:30 Mostly Cloudy with Thunderstorms 80 26.7 66 18.9 62 62 ESE 9 15 30.07 1018 10 16 0.00 0.00
8:45 pm 20:45 Partly Cloudy with Nearby Thunderstorms 77 25 66 18.9 69 69 ESE 7 11 30.07 1018 10 16 0.00 0.00
8:53 pm 20:53 Partly Cloudy with Nearby Thunderstorms 77 25 66 18.9 69 69 ESE 6 9 30.06 1018 10 16 0.00 0.00
9:12 pm 21:12 Partly Cloudy 76 24.4 66 18.9 72 72 Calm 30.06 1018 10 16 0.00 0.00
9:53 pm 21:53 Clear 74 23.3 67 19.4 79 79 Calm 30.06 1018 10 16 0.00 0.00
10:53 pm 22:53 Clear 74 23.3 66 18.9 76 76 E 3 6 30.09 1019 10 16 0.00 0.00
11:53 pm 23:53 Clear 72 22.2 68 20 87 87 Calm 30.09 1019 10 16 0.00 0.00

Powered by AerisWeather